Weather in Gabes

Tunisia     33°54′40″N   10°03′32″E
temp.,
°C
wind,
m/s
gust,
m/s
humid.,
%
clouds,
%
prec.,
mm/h
press.,
hPa
HPBL,
m
12 april, mon
mon1201:00+17ne91179100 0.1 1013470
04:00+16nne101179100 1.0 1013617
07:00+16ne91181100 2.3 1014624
10:00+18ne91069100 0.4 1016738
13:00+20ne810620 0.4 1016734
16:00+19ene79640 0.0 1015467
19:00+18ne812690 0.0 1017533
22:00+17ne8146848 0.0 1020834
13 april, tue
tue1301:00+16nne814755 0.0 1021810
04:00+16nne91368100 0.0 1021694
07:00+15nne8126296 0.0 1022606
10:00+17ne6756100 0.0 1024754
13:00+19ene45406 0.0 10231075
16:00+19ese65382 0.0 1021635
19:00+17ese67524 0.0 1022374
22:00+16ese785683 0.0 1023663
14 april, wed
wed1401:00+16ese56622 0.0 1023586
04:00+15ese46652 0.0 1021403
07:00+15ese45655 0.0 1022614
10:00+17ese55565 0.0 1022733
13:00+18ese55485 0.0 1020671
16:00+18e6552100 0.0 1018514
19:00+17ese8959100 0.0 1018474
22:00+17ese7961100 0.0 1019475
15 april, thu
thu1501:00+17ese685827 0.0 1018412
04:00+16ese685674 0.0 1016337
07:00+16ese5756100 0.0 1016378
10:00+18e675181 0.0 1016532
13:00+20ene875150 0.0 1014584
16:00+19ene91060100 0.0 1012426
19:00+17ene8117097 0.0 1011438
22:00+17ene11178091 0.0 1009551
16 april, fri
fri1601:00+17ene111681100 0.0 1006620
04:00+17e101578100 0.0 1002632
07:00+17e91373100 0.0 1000589
10:00+20ne546093 0.0 999404
13:00+23nnw55480 0.0 998733
16:00+25nw1010390 0.0 9991593
19:00+19nnw1012590 0.0 1004932
22:00